| time (UTC) | temp C | wind direction | speed KPH | gust KPH | rain 1hr cm | rain 24hr cm | rain mn cm | humidity % | barometer mb |
| 20260507071003 | 12 | 172 | 4.8 | 9.7 | 0.00 | 0.23 | 0.03 | 96 | 1006.1 |
| 20260507070004 | 12 | 173 | 6.4 | 8.0 | 0.00 | 0.23 | 0.03 | 96 | 1006.1 |
| 20260507065003 | 12 | 191 | 4.8 | 8.0 | 0.00 | 0.23 | 0.03 | 96 | 1006.3 |
| 20260507064024 | 12 | 206 | 3.2 | 8.0 | 0.00 | 0.23 | 0.03 | 96 | 1006.2 |
| 20260507063003 | 12 | 188 | 1.6 | 14.5 | 0.00 | 0.23 | 0.03 | 96 | 1006.3 |
| 20260507062003 | 12 | 138 | 3.2 | 14.5 | 0.00 | 0.23 | 0.03 | 96 | 1006.2 |
| 20260507061003 | 12 | 210 | 4.8 | 9.7 | 0.00 | 0.23 | 0.03 | 96 | 1006.7 |
| 20260507060003 | 12 | 191 | 3.2 | 9.7 | 0.03 | 0.23 | 0.03 | 96 | 1006.5 |
| 20260507055003 | 12 | 196 | 4.8 | 9.7 | 0.03 | 0.23 | 0.03 | 96 | 1006.8 |
| 20260507054003 | 12 | 206 | 4.8 | 11.3 | 0.03 | 0.23 | 0.03 | 96 | 1006.9 |
| 20260507053024 | 12 | 201 | 6.4 | 11.3 | 0.03 | 0.23 | 0.03 | 96 | 1007.0 |
| 20260507052003 | 12 | 194 | 6.4 | 11.3 | 0.03 | 0.23 | 0.03 | 96 | 1007.3 |
| 20260507051004 | 12 | 197 | 4.8 | 16.1 | 0.00 | 0.20 | 0.00 | 96 | 1007.3 |
| 20260507050003 | 12 | 214 | 8.0 | 16.1 | 0.00 | 0.20 | 0.00 | 96 | 1007.8 |
| 20260507045003 | 12 | 218 | 6.4 | 16.1 | 0.00 | 0.20 | 0.00 | 96 | 1007.4 |
| 20260507044003 | 12 | 224 | 8.0 | 14.5 | 0.00 | 0.20 | 0.00 | 96 | 1007.4 |
| 20260507043003 | 12 | 207 | 9.7 | 14.5 | 0.00 | 0.20 | 0.00 | 96 | 1007.3 |
| 20260507042003 | 12 | 205 | 6.4 | 20.9 | 0.00 | 0.20 | 0.00 | 96 | 1007.4 |
| 20260507041003 | 12 | 211 | 8.0 | 20.9 | 0.00 | 0.20 | 0.00 | 97 | 1007.4 |
| 20260507040004 | 12 | 219 | 11.3 | 20.9 | 0.00 | 0.20 | 0.00 | 97 | 1007.7 |
| 20260507035003 | 12 | 224 | 6.4 | 19.3 | 0.00 | 0.20 | 0.20 | 97 | 1007.9 |
| 20260507034004 | 12 | 222 | 9.7 | 22.5 | 0.00 | 0.20 | 0.20 | 97 | 1007.5 |
| 20260507033024 | 12 | 223 | 9.7 | 30.6 | 0.00 | 0.20 | 0.20 | 97 | 1007.9 |
| 20260507032003 | 12 | 240 | 14.5 | 30.6 | 0.00 | 0.20 | 0.20 | 97 | 1007.8 |
| 20260507031003 | 12 | 217 | 9.7 | 30.6 | 0.00 | 0.20 | 0.20 | 97 | 1007.5 |
| 20260507030003 | 12 | 213 | 14.5 | 30.6 | 0.00 | 0.20 | 0.20 | 97 | 1007.4 |
| 20260507025003 | 12 | 209 | 16.1 | 22.5 | 0.00 | 0.20 | 0.20 | 97 | 1007.5 |
| 20260507024003 | 12 | 218 | 12.9 | 27.4 | 0.00 | 0.20 | 0.20 | 97 | 1007.5 |
| 20260507023024 | 13 | 222 | 12.9 | 30.6 | 0.00 | 0.20 | 0.20 | 97 | 1007.7 |
| 20260507022003 | 13 | 213 | 16.1 | 30.6 | 0.00 | 0.20 | 0.20 | 97 | 1007.8 |
| 20260507021024 | 13 | 214 | 12.9 | 30.6 | 0.00 | 0.20 | 0.20 | 97 | 1007.9 |
| 20260507020003 | 13 | 219 | 16.1 | 30.6 | 0.00 | 0.20 | 0.20 | 97 | 1008.0 |
| 20260507015003 | 13 | 223 | 16.1 | 25.7 | 0.00 | 0.20 | 0.20 | 97 | 1008.3 |
| 20260507014003 | 13 | 221 | 12.9 | 30.6 | 0.00 | 0.20 | 0.20 | 97 | 1008.1 |
| 20260507013003 | 13 | 233 | 17.7 | 33.8 | 0.03 | 0.20 | 0.20 | 97 | 1008.5 |
| 20260507012003 | 13 | 231 | 17.7 | 33.8 | 0.03 | 0.20 | 0.20 | 97 | 1008.6 |
| 20260507011003 | 13 | 215 | 12.9 | 29.0 | 0.03 | 0.18 | 0.18 | 97 | 1008.5 |
| 20260507010004 | 13 | 226 | 16.1 | 37.0 | 0.03 | 0.18 | 0.18 | 97 | 1008.4 |
| 20260507005024 | 13 | 227 | 14.5 | 41.8 | 0.03 | 0.18 | 0.18 | 97 | 1008.4 |
| 20260507004003 | 13 | 231 | 17.7 | 41.8 | 0.05 | 0.18 | 0.18 | 97 | 1008.6 |
| 20260507003003 | 13 | 245 | 19.3 | 40.2 | 0.05 | 0.18 | 0.18 | 97 | 1008.4 |
| 20260507002003 | 13 | 231 | 14.5 | 30.6 | 0.05 | 0.18 | 0.18 | 97 | 1008.4 |
| 20260507001003 | 13 | 222 | 20.9 | 35.4 | 0.05 | 0.18 | 0.18 | 97 | 1008.5 |
| 20260507000003 | 13 | 231 | 22.5 | 40.2 | 0.08 | 0.18 | 0.18 | 97 | 1008.3 |
| 20260506235003 | 13 | 206 | 14.5 | 40.2 | 0.08 | 0.15 | 0.15 | 96 | 1008.4 |
| 20260506234003 | 13 | 207 | 19.3 | 33.8 | 0.10 | 0.15 | 0.15 | 96 | 1008.5 |
| 20260506233003 | 13 | 208 | 16.1 | 32.2 | 0.10 | 0.13 | 0.13 | 96 | 1008.3 |
| 20260506232003 | 13 | 218 | 17.7 | 41.8 | 0.10 | 0.13 | 0.13 | 96 | 1008.1 |
| 20260506231003 | 13 | 226 | 17.7 | 41.8 | 0.08 | 0.13 | 0.13 | 96 | 1008.1 |
| 20260506230003 | 13 | 198 | 20.9 | 43.5 | 0.08 | 0.10 | 0.10 | 95 | 1008.6 |
| 20260506225003 | 13 | 222 | 22.5 | 43.5 | 0.05 | 0.08 | 0.08 | 94 | 1008.6 |
| 20260506224003 | 13 | 224 | 17.7 | 38.6 | 0.05 | 0.05 | 0.05 | 93 | 1008.5 |
| 20260506223003 | 13 | 222 | 17.7 | 38.6 | 0.03 | 0.05 | 0.05 | 93 | 1008.6 |
| 20260506222003 | 13 | 227 | 19.3 | 40.2 | 0.03 | 0.05 | 0.05 | 91 | 1008.8 |
| 20260506221003 | 14 | 219 | 22.5 | 40.2 | 0.00 | 0.03 | 0.03 | 90 | 1008.9 |
| 20260506220003 | 15 | 226 | 17.7 | 33.8 | 0.00 | 0.03 | 0.03 | 88 | 1008.8 |
| 20260506215003 | 15 | 212 | 19.3 | 38.6 | 0.00 | 0.03 | 0.03 | 86 | 1008.9 |
| 20260506214024 | 15 | 219 | 19.3 | 38.6 | 0.03 | 0.03 | 0.03 | 85 | 1009.0 |
| 20260506213003 | 15 | 197 | 17.7 | 32.2 | 0.03 | 0.03 | 0.03 | 86 | 1009.1 |
| 20260506212003 | 15 | 215 | 16.1 | 32.2 | 0.03 | 0.03 | 0.03 | 85 | 1009.1 |
| 20260506211003 | 15 | 211 | 24.1 | 32.2 | 0.03 | 0.03 | 0.03 | 85 | 1009.2 |
| 20260506210003 | 15 | 201 | 22.5 | 33.8 | 0.00 | 0.00 | 0.00 | 83 | 1009.4 |
| 20260506205024 | 15 | 232 | 16.1 | 33.8 | 0.00 | 0.00 | 0.00 | 83 | 1009.3 |
| 20260506204003 | 16 | 243 | 17.7 | 41.8 | 0.00 | 0.00 | 0.00 | 82 | 1009.3 |
| 20260506203003 | 16 | 205 | 12.9 | 41.8 | 0.00 | 0.00 | 0.00 | 83 | 1009.5 |
| 20260506202003 | 16 | 226 | 19.3 | 33.8 | 0.00 | 0.00 | 0.00 | 81 | 1009.5 |
| 20260506201024 | 16 | 209 | 17.7 | 33.8 | 0.00 | 0.00 | 0.00 | 79 | 1009.4 |
| 20260506200003 | 16 | 215 | 14.5 | 32.2 | 0.00 | 0.00 | 0.00 | 80 | 1009.9 |
| 20260506195003 | 16 | 232 | 14.5 | 32.2 | 0.00 | 0.00 | 0.00 | 78 | 1009.9 |
| 20260506194003 | 16 | 235 | 16.1 | 32.2 | 0.00 | 0.00 | 0.00 | 77 | 1010.1 |
| 20260506193003 | 16 | 224 | 16.1 | 30.6 | 0.00 | 0.00 | 0.00 | 77 | 1010.2 |
| 20260506192003 | 16 | 205 | 14.5 | 30.6 | 0.00 | 0.00 | 0.00 | 78 | 1010.2 |
| 20260506191003 | 17 | 212 | 17.7 | 37.0 | 0.00 | 0.00 | 0.00 | 76 | 1010.2 |
| 20260506190024 | 17 | 228 | 14.5 | 45.1 | 0.00 | 0.00 | 0.00 | 76 | 1010.3 |
| 20260506185024 | 17 | 219 | 22.5 | 45.1 | 0.00 | 0.00 | 0.00 | 75 | 1010.2 |
| 20260506184003 | 17 | 219 | 17.7 | 43.5 | 0.00 | 0.00 | 0.00 | 75 | 1010.5 |
| 20260506183003 | 17 | 214 | 17.7 | 43.5 | 0.00 | 0.00 | 0.00 | 74 | 1010.6 |
| 20260506182003 | 17 | 222 | 12.9 | 43.5 | 0.00 | 0.00 | 0.00 | 75 | 1010.6 |
| 20260506181003 | 17 | 221 | 22.5 | 40.2 | 0.00 | 0.00 | 0.00 | 74 | 1011.0 |
| 20260506180004 | 18 | 225 | 22.5 | 54.7 | 0.00 | 0.00 | 0.00 | 73 | 1011.1 |
| 20260506175003 | 18 | 229 | 22.5 | 54.7 | 0.00 | 0.00 | 0.00 | 72 | 1011.3 |
| 20260506174003 | 19 | 233 | 22.5 | 43.5 | 0.00 | 0.00 | 0.00 | 71 | 1011.3 |
| 20260506173004 | 18 | 213 | 22.5 | 43.5 | 0.00 | 0.00 | 0.00 | 71 | 1011.5 |
| 20260506172003 | 19 | 219 | 20.9 | 30.6 | 0.00 | 0.00 | 0.00 | 72 | 1011.5 |
| 20260506171003 | 19 | 229 | 19.3 | 41.8 | 0.00 | 0.00 | 0.00 | 74 | 1011.5 |
| 20260506170003 | 18 | 235 | 16.1 | 45.1 | 0.00 | 0.00 | 0.00 | 74 | 1011.9 |
| 20260506165003 | 17 | 220 | 17.7 | 45.1 | 0.00 | 0.00 | 0.00 | 75 | 1012.0 |
| 20260506164003 | 18 | 217 | 20.9 | 41.8 | 0.00 | 0.00 | 0.00 | 74 | 1012.0 |
| 20260506163003 | 18 | 216 | 22.5 | 41.8 | 0.00 | 0.00 | 0.00 | 71 | 1012.1 |
| 20260506162003 | 19 | 233 | 20.9 | 40.2 | 0.00 | 0.00 | 0.00 | 71 | 1012.4 |
| 20260506161002 | 20 | 220 | 19.3 | 40.2 | 0.00 | 0.00 | 0.00 | 69 | 1012.4 |
| 20260506160003 | 19 | 214 | 19.3 | 48.3 | 0.00 | 0.00 | 0.00 | 70 | 1012.4 |
| 20260506155003 | 19 | 211 | 17.7 | 48.3 | 0.00 | 0.00 | 0.00 | 71 | 1012.6 |
| 20260506154002 | 18 | 230 | 17.7 | 45.1 | 0.00 | 0.00 | 0.00 | 71 | 1012.6 |
| 20260506153002 | 19 | 201 | 24.1 | 48.3 | 0.00 | 0.00 | 0.00 | 72 | 1012.8 |
| 20260506152003 | 19 | 214 | 25.7 | 49.9 | 0.00 | 0.00 | 0.00 | 71 | 1012.9 |
| 20260506151003 | 20 | 229 | 25.7 | 49.9 | 0.00 | 0.00 | 0.00 | 70 | 1012.8 |
| 20260506150003 | 20 | 210 | 24.1 | 49.9 | 0.00 | 0.00 | 0.00 | 70 | 1012.7 |
| 20260506145003 | 18 | 219 | 19.3 | 43.5 | 0.00 | 0.00 | 0.00 | 73 | 1012.8 |
| 20260506144024 | 18 | 223 | 22.5 | 49.9 | 0.00 | 0.00 | 0.00 | 70 | 1012.6 |
| 20260506143003 | 18 | 215 | 19.3 | 49.9 | 0.00 | 0.00 | 0.00 | 72 | 1012.7 |
| 20260506142003 | 18 | 224 | 19.3 | 41.8 | 0.00 | 0.00 | 0.00 | 71 | 1012.6 |
| 20260506141003 | 20 | 222 | 22.5 | 41.8 | 0.00 | 0.00 | 0.00 | 69 | 1012.9 |
| 20260506140003 | 20 | 233 | 27.4 | 41.8 | 0.00 | 0.00 | 0.00 | 70 | 1012.7 |
| 20260506135024 | 20 | 230 | 19.3 | 40.2 | 0.00 | 0.00 | 0.00 | 69 | 1013.0 |
| 20260506134003 | 20 | 241 | 20.9 | 38.6 | 0.00 | 0.00 | 0.00 | 70 | 1012.8 |
| 20260506133002 | 20 | 235 | 20.9 | 38.6 | 0.00 | 0.00 | 0.00 | 71 | 1013.0 |
| 20260506132003 | 19 | 222 | 14.5 | 40.2 | 0.00 | 0.00 | 0.00 | 72 | 1012.9 |
| 20260506131003 | 19 | 217 | 20.9 | 40.2 | 0.00 | 0.00 | 0.00 | 72 | 1012.7 |
| 20260506130004 | 18 | 230 | 19.3 | 45.1 | 0.00 | 0.00 | 0.00 | 74 | 1012.6 |
| 20260506125003 | 18 | 221 | 14.5 | 56.3 | 0.00 | 0.00 | 0.00 | 75 | 1012.6 |
| 20260506124003 | 17 | 217 | 16.1 | 56.3 | 0.00 | 0.00 | 0.00 | 76 | 1012.9 |
| 20260506123003 | 17 | 225 | 20.9 | 54.7 | 0.00 | 0.00 | 0.00 | 77 | 1012.9 |
| 20260506122003 | 17 | 224 | 22.5 | 41.8 | 0.00 | 0.00 | 0.00 | 79 | 1012.8 |
| 20260506121002 | 16 | 206 | 20.9 | 38.6 | 0.00 | 0.00 | 0.00 | 81 | 1013.0 |
| 20260506120003 | 15 | 219 | 20.9 | 38.6 | 0.00 | 0.00 | 0.00 | 85 | 1013.0 |
| 20260506115003 | 14 | 220 | 17.7 | 32.2 | 0.00 | 0.00 | 0.00 | 88 | 1013.2 |
| 20260506114003 | 13 | 214 | 17.7 | 33.8 | 0.00 | 0.00 | 0.00 | 88 | 1013.2 |
| 20260506113003 | 14 | 228 | 17.7 | 33.8 | 0.00 | 0.00 | 0.00 | 88 | 1013.3 |
| 20260506112003 | 14 | 220 | 19.3 | 32.2 | 0.00 | 0.00 | 0.00 | 89 | 1013.1 |
| 20260506111003 | 13 | 215 | 17.7 | 33.8 | 0.00 | 0.00 | 0.00 | 90 | 1013.1 |
| 20260506110003 | 13 | 214 | 16.1 | 33.8 | 0.00 | 0.00 | 0.00 | 91 | 1013.0 |
| 20260506105003 | 13 | 223 | 14.5 | 32.2 | 0.00 | 0.00 | 0.00 | 92 | 1013.1 |
| 20260506104003 | 13 | 227 | 14.5 | 32.2 | 0.00 | 0.00 | 0.00 | 92 | 1013.2 |
| 20260506103004 | 12 | 217 | 14.5 | 29.0 | 0.00 | 0.00 | 0.00 | 92 | 1013.1 |
| 20260506102003 | 12 | 212 | 16.1 | 29.0 | 0.00 | 0.00 | 0.00 | 93 | 1012.8 |
| 20260506101003 | 12 | 215 | 17.7 | 29.0 | 0.00 | 0.00 | 0.00 | 93 | 1012.9 |
| 20260506100003 | 12 | 214 | 12.9 | 29.0 | 0.00 | 0.00 | 0.00 | 93 | 1012.8 |
| 20260506095003 | 12 | 221 | 16.1 | 30.6 | 0.00 | 0.00 | 0.00 | 93 | 1012.9 |
| 20260506094004 | 12 | 217 | 14.5 | 32.2 | 0.00 | 0.00 | 0.00 | 93 | 1013.2 |
| 20260506093003 | 12 | 216 | 22.5 | 32.2 | 0.00 | 0.00 | 0.00 | 93 | 1013.1 |
| 20260506092003 | 12 | 218 | 16.1 | 40.2 | 0.00 | 0.00 | 0.00 | 92 | 1013.3 |
| 20260506091003 | 13 | 218 | 17.7 | 43.5 | 0.00 | 0.00 | 0.00 | 92 | 1013.3 |
| 20260506090003 | 13 | 213 | 14.5 | 43.5 | 0.00 | 0.00 | 0.00 | 93 | 1013.3 |
| 20260506085003 | 13 | 224 | 16.1 | 35.4 | 0.00 | 0.00 | 0.00 | 92 | 1013.1 |
| 20260506084003 | 13 | 211 | 19.3 | 38.6 | 0.00 | 0.00 | 0.00 | 93 | 1013.1 |
| 20260506083003 | 13 | 227 | 16.1 | 38.6 | 0.00 | 0.00 | 0.00 | 93 | 1013.2 |
| 20260506082003 | 13 | 206 | 25.7 | 38.6 | 0.00 | 0.00 | 0.00 | 94 | 1013.3 |
| 20260506081003 | 13 | 220 | 22.5 | 38.6 | 0.00 | 0.00 | 0.00 | 94 | 1013.5 |
| 20260506073004 | 12 | 230 | 12.9 | 35.4 | 0.00 | 0.00 | 0.00 | 93 | 1013.1 |
| 20260506072003 | 12 | 216 | 19.3 | 35.4 | 0.00 | 0.00 | 0.00 | 92 | 1013.3 |